Voltar ao catálogo

ATLAS 5 CENTAUR DEB

LostHEO
NORAD 46659·DEBRIS·🇺🇸 United States

Lançado Oct 17, 2018 de Cape Canaveral Space Force Station

Loading…

Próximas Passagens (próximas 24 horas)

TLE

ObsoletoSource: Space-Track

Época: Aug 22, 2024, 21:05 UTC

1 46659U 18079CM  24235.87876683 -.00000070  00000-0  00000+0 0  9991
2 46659  10.9090 112.5516 4978331 171.4839 201.8516  1.71454110 24261

Acompanhe ATLAS 5 CENTAUR DEB em tempo real com AllMySat

Download on the App Store